^^
Saratoga-Weather Station Historical Data
Daily Summary for April 08, 2021 Units:  Metric    English   Both
Daily Weekly Monthly Yearly Custom
  High: Low: Average:
Temperature: 5.1 °C 0.7 °C 2.3 °C
Dew Point: -1.7 °C -4.3 °C -2.6 °C
Humidity: 79% 51% 71%
Wind Speed: 9.7km/h 0km/h 2.3km/h
Wind Gust: 16.1km/h - -
Wind- - West
Pressure: 1025.7 hPa 1023.7 hPa -
Precipitation: 0.0 mm    
Historical Graphs
 
 
Tabular Data for April 08, 2021
Time Temperature Dew Point Pressure Wind Wind Speed Wind Gust Humidity Rainfall Rate (Hourly) solar
00:02 3.3 °C -3.5 °C 1023.7 hPa West 6.4 km/h 9.7 km/h 61% 0.0 mm 0 W/m2
00:07 3.2 °C -3.4 °C 1023.7 hPa WNW 4.7 km/h 16.1 km/h 62% 0.0 mm 0 W/m2
00:12 3.2 °C -3.4 °C 1023.7 hPa West 4.7 km/h 9.7 km/h 62% 0.0 mm 0 W/m2
00:17 3.2 °C -3.2 °C 1023.7 hPa West 6.4 km/h 16.1 km/h 63% 0.0 mm 0 W/m2
00:22 3.1 °C -3.3 °C 1023.7 hPa NW 1.4 km/h 9.7 km/h 63% 0.0 mm 0 W/m2
00:27 3.1 °C -3.3 °C 1023.7 hPa WNW 3.2 km/h 8 km/h 63% 0.0 mm 0 W/m2
00:32 3.1 °C -3.3 °C 1023.7 hPa WNW 4.7 km/h 12.9 km/h 63% 0.0 mm 0 W/m2
00:37 3 °C -3.1 °C 1023.7 hPa West 9.7 km/h 11.3 km/h 64% 0.0 mm 0 W/m2
00:42 3 °C -3.1 °C 1023.7 hPa WNW 6.4 km/h 12.9 km/h 64% 0.0 mm 0 W/m2
00:47 2.9 °C -3.2 °C 1023.7 hPa WSW 1.4 km/h 6.4 km/h 64% 0.0 mm 0 W/m2
00:52 2.9 °C -3 °C 1023.7 hPa WSW 3.2 km/h 6.4 km/h 65% 0.0 mm 0 W/m2
00:57 2.8 °C -3.1 °C 1024.0 hPa West 4.7 km/h 4.8 km/h 65% 0.0 mm 0 W/m2
01:02 2.7 °C -3 °C 1024.0 hPa West 3.2 km/h 8 km/h 66% 0.0 mm 0 W/m2
01:07 2.7 °C -3 °C 1024.0 hPa WNW 1.4 km/h 3.2 km/h 66% 0.0 mm 0 W/m2
01:12 2.6 °C -2.9 °C 1024.0 hPa NNW 4.7 km/h 8 km/h 67% 0.0 mm 0 W/m2
01:17 2.6 °C -2.7 °C 1024.0 hPa WNW 4.7 km/h 6.4 km/h 68% 0.0 mm 0 W/m2
01:22 2.6 °C -2.7 °C 1024.0 hPa West 4.7 km/h 6.4 km/h 68% 0.0 mm 0 W/m2
01:27 2.6 °C -2.5 °C 1024.0 hPa West 3.2 km/h 4.8 km/h 69% 0.0 mm 0 W/m2
01:32 2.6 °C -2.5 °C 1024.0 hPa West 3.2 km/h 6.4 km/h 69% 0.0 mm 0 W/m2
01:37 2.6 °C -2.3 °C 1024.0 hPa WNW 1.4 km/h 4.8 km/h 70% 0.0 mm 0 W/m2
01:42 2.5 °C -2.4 °C 1024.0 hPa West 3.2 km/h 9.7 km/h 70% 0.0 mm 0 W/m2
01:47 2.4 °C -2.5 °C 1024.0 hPa West 3.2 km/h 4.8 km/h 70% 0.0 mm 0 W/m2
01:52 2.4 °C -2.5 °C 1024.0 hPa West 1.4 km/h 8 km/h 70% 0.0 mm 0 W/m2
01:57 2.3 °C -2.4 °C 1024.0 hPa WSW 3.2 km/h 4.8 km/h 71% 0.0 mm 0 W/m2
02:02 2.3 °C -2.4 °C 1024.0 hPa West 3.2 km/h 3.2 km/h 71% 0.0 mm 0 W/m2
02:07 2.2 °C -2.5 °C 1024.0 hPa West 1.4 km/h 6.4 km/h 71% 0.0 mm 0 W/m2
02:12 2.2 °C -2.5 °C 1024.0 hPa WSW 3.2 km/h 4.8 km/h 71% 0.0 mm 0 W/m2
02:17 2.2 °C -2.3 °C 1024.0 hPa West 3.2 km/h 6.4 km/h 72% 0.0 mm 0 W/m2
02:22 2.2 °C -2.3 °C 1024.0 hPa West 6.4 km/h 6.4 km/h 72% 0.0 mm 0 W/m2
02:27 2.1 °C -2.4 °C 1024.0 hPa WNW 1.4 km/h 4.8 km/h 72% 0.0 mm 0 W/m2
02:32 2.1 °C -2.4 °C 1024.0 hPa West 1.4 km/h 4.8 km/h 72% 0.0 mm 0 W/m2
02:37 2.1 °C -2.4 °C 1024.0 hPa West 1.4 km/h 4.8 km/h 72% 0.0 mm 0 W/m2
02:47 2.1 °C -2.4 °C 1024.0 hPa West 3.2 km/h 6.4 km/h 72% 0.0 mm 0 W/m2
02:52 2 °C -2.5 °C 1024.0 hPa West 4.7 km/h 6.4 km/h 72% 0.0 mm 0 W/m2
02:57 2 °C -2.5 °C 1024.4 hPa WSW 3.2 km/h 6.4 km/h 72% 0.0 mm 0 W/m2
03:02 2 °C -2.5 °C 1024.0 hPa West 3.2 km/h 6.4 km/h 72% 0.0 mm 0 W/m2
03:07 2 °C -2.5 °C 1024.0 hPa West 1.4 km/h 6.4 km/h 72% 0.0 mm 0 W/m2
03:13 2 °C -2.5 °C 1024.4 hPa West 1.4 km/h 6.4 km/h 72% 0.0 mm 0 W/m2
03:18 1.9 °C -2.6 °C 1024.4 hPa West 4.7 km/h 4.8 km/h 72% 0.0 mm 0 W/m2
03:28 1.9 °C -2.6 °C 1024.4 hPa WNW 4.7 km/h 6.4 km/h 72% 0.0 mm 0 W/m2
03:33 2 °C -2.5 °C 1024.4 hPa WNW 3.2 km/h 6.4 km/h 72% 0.0 mm 0 W/m2
03:38 2 °C -2.5 °C 1024.4 hPa NW 3.2 km/h 3.2 km/h 72% 0.0 mm 0 W/m2
03:43 1.9 °C -2.6 °C 1024.4 hPa Calm   4.8 km/h 72% 0.0 mm 0 W/m2
03:48 1.8 °C -2.5 °C 1024.4 hPa Calm   1.6 km/h 73% 0.0 mm 0 W/m2
03:53 1.7 °C -2.6 °C 1024.4 hPa NW 1.4 km/h 4.8 km/h 73% 0.0 mm 0 W/m2
03:58 1.6 °C -2.7 °C 1024.4 hPa NW 1.4 km/h 3.2 km/h 73% 0.0 mm 0 W/m2
04:03 1.5 °C -2.6 °C 1024.7 hPa NW 3.2 km/h 3.2 km/h 74% 0.0 mm 0 W/m2
04:08 1.6 °C -2.5 °C 1024.4 hPa NW 1.4 km/h 1.6 km/h 74% 0.0 mm 0 W/m2
04:13 1.6 °C -2.5 °C 1024.7 hPa NW 1.4 km/h 3.2 km/h 74% 0.0 mm 0 W/m2
04:18 1.6 °C -2.5 °C 1024.4 hPa West 3.2 km/h 4.8 km/h 74% 0.0 mm 0 W/m2
04:23 1.7 °C -2.4 °C 1024.4 hPa WNW 3.2 km/h 4.8 km/h 74% 0.0 mm 0 W/m2
04:28 1.7 °C -2.4 °C 1024.4 hPa West 4.7 km/h 4.8 km/h 74% 0.0 mm 0 W/m2
04:33 1.8 °C -2.5 °C 1024.4 hPa West 3.2 km/h 3.2 km/h 73% 0.0 mm 0 W/m2
04:38 1.8 °C -2.5 °C 1024.4 hPa Calm   1.6 km/h 73% 0.0 mm 0 W/m2
04:43 1.8 °C -2.3 °C 1024.4 hPa Calm     74% 0.0 mm 0 W/m2
04:48 1.8 °C -2.3 °C 1024.4 hPa Calm   1.6 km/h 74% 0.0 mm 0 W/m2
04:53 1.7 °C -2.4 °C 1024.4 hPa West 1.4 km/h 4.8 km/h 74% 0.0 mm 0 W/m2
04:58 1.6 °C -2.5 °C 1024.7 hPa Calm   3.2 km/h 74% 0.0 mm 0 W/m2
05:03 1.6 °C -2.5 °C 1024.7 hPa West 1.4 km/h 3.2 km/h 74% 0.0 mm 0 W/m2
05:08 1.7 °C -2.4 °C 1024.7 hPa West 1.4 km/h 4.8 km/h 74% 0.0 mm 0 W/m2
05:13 1.7 °C -2.4 °C 1024.7 hPa WNW 1.4 km/h 4.8 km/h 74% 0.0 mm 0 W/m2
05:18 1.7 °C -2.4 °C 1024.7 hPa WNW 1.4 km/h 4.8 km/h 74% 0.0 mm 0 W/m2
05:23 1.6 °C -2.4 °C 1024.7 hPa NW 1.4 km/h 3.2 km/h 75% 0.0 mm 0 W/m2
05:28 1.4 °C -2.5 °C 1024.7 hPa West 1.4 km/h 3.2 km/h 75% 0.0 mm 0 W/m2
05:33 1.3 °C -2.5 °C 1024.7 hPa West 1.4 km/h 3.2 km/h 76% 0.0 mm 0 W/m2
05:38 1.2 °C -2.6 °C 1024.7 hPa Calm     76% 0.0 mm 0 W/m2
05:43 1.1 °C -2.7 °C 1024.7 hPa Calm     76% 0.0 mm 0 W/m2
05:48 1 °C -2.6 °C 1024.7 hPa Calm     77% 0.0 mm 0 W/m2
05:53 0.9 °C -2.7 °C 1024.7 hPa NW 1.4 km/h 4.8 km/h 77% 0.0 mm 0 W/m2
05:58 1 °C -2.6 °C 1024.7 hPa Calm   1.6 km/h 77% 0.0 mm 0 W/m2
06:03 1.1 °C -2.5 °C 1025.1 hPa WNW 1.4 km/h 4.8 km/h 77% 0.0 mm 0 W/m2
06:08 1.1 °C -2.5 °C 1024.7 hPa Calm   1.6 km/h 77% 0.0 mm 0 W/m2
06:13 1.1 °C -2.5 °C 1024.7 hPa West 3.2 km/h 3.2 km/h 77% 0.0 mm 0 W/m2
06:18 1.2 °C -2.6 °C 1024.7 hPa WNW 1.4 km/h 3.2 km/h 76% 0.0 mm 0 W/m2
06:23 1.3 °C -2.6 °C 1024.7 hPa Calm     75% 0.0 mm 0 W/m2
06:28 1.4 °C -2.5 °C 1025.1 hPa West 1.4 km/h 4.8 km/h 75% 0.0 mm 0 W/m2
06:33 1.4 °C -2.4 °C 1024.7 hPa Calm   1.6 km/h 76% 0.0 mm 0 W/m2
06:38 1.3 °C -2.5 °C 1024.7 hPa Calm   4.8 km/h 76% 0.0 mm 0 W/m2
06:43 1.3 °C -2.5 °C 1024.7 hPa Calm   1.6 km/h 76% 0.0 mm 0 W/m2
06:48 1.2 °C -2.6 °C 1024.7 hPa West 1.4 km/h 1.6 km/h 76% 0.0 mm 0 W/m2
06:53 1.1 °C -2.5 °C 1024.7 hPa Calm     77% 0.0 mm 0 W/m2
06:58 1.1 °C -2.5 °C 1024.7 hPa Calm     77% 0.0 mm 0 W/m2
07:03 0.9 °C -2.7 °C 1025.1 hPa Calm     77% 0.0 mm 0 W/m2
07:08 0.8 °C -2.6 °C 1025.1 hPa Calm     78% 0.0 mm 5 W/m2
07:13 0.8 °C -2.6 °C 1025.1 hPa Calm     78% 0.0 mm 7 W/m2
07:18 0.7 °C -2.5 °C 1025.1 hPa Calm   3.2 km/h 79% 0.0 mm 9 W/m2
07:23 0.7 °C -2.5 °C 1025.1 hPa Calm   1.6 km/h 79% 0.0 mm 14 W/m2
07:28 0.7 °C -2.5 °C 1025.1 hPa Calm   3.2 km/h 79% 0.0 mm 21 W/m2
07:33 0.7 °C -2.5 °C 1025.1 hPa Calm     79% 0.0 mm 23 W/m2
07:38 0.9 °C -2.3 °C 1025.1 hPa West 4.7 km/h 4.8 km/h 79% 0.0 mm 30 W/m2
07:43 1.2 °C -2.2 °C 1025.1 hPa Calm   3.2 km/h 78% 0.0 mm 35 W/m2
07:48 1.3 °C -2.3 °C 1025.1 hPa WSW 1.4 km/h 3.2 km/h 77% 0.0 mm 39 W/m2
07:53 1.5 °C -2.3 °C 1025.4 hPa West 4.7 km/h 4.8 km/h 76% 0.0 mm 47 W/m2
07:58 1.7 °C -2.3 °C 1025.4 hPa West 3.2 km/h 4.8 km/h 75% 0.0 mm 53 W/m2
08:03 1.9 °C -2.2 °C 1025.4 hPa NW 1.4 km/h 4.8 km/h 74% 0.0 mm 60 W/m2
08:08 2 °C -2.1 °C 1025.1 hPa West 1.4 km/h 6.4 km/h 74% 0.0 mm 70 W/m2
08:13 2.1 °C -2 °C 1025.1 hPa WSW 1.4 km/h 3.2 km/h 74% 0.0 mm 79 W/m2
08:18 2.2 °C -2.1 °C 1025.4 hPa West 1.4 km/h 6.4 km/h 73% 0.0 mm 90 W/m2
08:23 2.3 °C -2 °C 1025.4 hPa West 3.2 km/h 9.7 km/h 73% 0.0 mm 90 W/m2
08:28 2.3 °C -2 °C 1025.4 hPa West 3.2 km/h 4.8 km/h 73% 0.0 mm 95 W/m2
08:33 2.4 °C -1.9 °C 1025.4 hPa Calm   6.4 km/h 73% 0.0 mm 100 W/m2
08:38 2.5 °C -1.8 °C 1025.4 hPa Calm   4.8 km/h 73% 0.0 mm 109 W/m2
08:43 2.6 °C -1.8 °C 1025.4 hPa Calm   4.8 km/h 73% 0.0 mm 118 W/m2
08:49 2.7 °C -1.8 °C 1025.4 hPa West 3.2 km/h 6.4 km/h 72% 0.0 mm 123 W/m2
08:54 2.8 °C -1.9 °C 1025.4 hPa Calm   4.8 km/h 71% 0.0 mm 130 W/m2
08:59 2.9 °C -1.8 °C 1025.4 hPa West 4.7 km/h 6.4 km/h 71% 0.0 mm 151 W/m2
09:04 3 °C -1.7 °C 1025.4 hPa SW 3.2 km/h 6.4 km/h 71% 0.0 mm 153 W/m2
09:09 3.1 °C -1.8 °C 1025.7 hPa West 6.4 km/h 6.4 km/h 70% 0.0 mm 160 W/m2
09:14 3.2 °C -1.7 °C 1025.7 hPa NW 1.4 km/h 3.2 km/h 70% 0.0 mm 178 W/m2
09:19 3.3 °C -1.8 °C 1025.7 hPa NW 4.7 km/h 11.3 km/h 69% 0.0 mm 185 W/m2
09:24 3.4 °C -1.9 °C 1025.7 hPa WNW 1.4 km/h 6.4 km/h 68% 0.0 mm 174 W/m2
09:29 3.5 °C -1.8 °C 1025.7 hPa NW 1.4 km/h 4.8 km/h 68% 0.0 mm 199 W/m2
09:34 3.7 °C -2.1 °C 1025.7 hPa West 4.7 km/h 6.4 km/h 66% 0.0 mm 202 W/m2
09:39 3.8 °C -2.4 °C 1025.7 hPa West 3.2 km/h 6.4 km/h 64% 0.0 mm 207 W/m2
09:44 3.8 °C -2.4 °C 1025.7 hPa West 1.4 km/h 4.8 km/h 64% 0.0 mm 264 W/m2
09:49 3.9 °C -2.9 °C 1025.7 hPa WNW 4.7 km/h 9.7 km/h 61% 0.0 mm 220 W/m2
09:54 3.9 °C -2.9 °C 1025.7 hPa Calm   1.6 km/h 61% 0.0 mm 225 W/m2
09:59 4.2 °C -2.9 °C 1025.7 hPa North 4.7 km/h 8 km/h 60% 0.0 mm 229 W/m2
10:04 4.3 °C -3.5 °C 1025.7 hPa WNW 3.2 km/h 6.4 km/h 57% 0.0 mm 239 W/m2
10:09 4.4 °C -3.6 °C 1025.7 hPa Calm   3.2 km/h 56% 0.0 mm 253 W/m2
10:14 4.6 °C -3.4 °C 1025.7 hPa WSW 4.7 km/h 6.4 km/h 56% 0.0 mm 260 W/m2
10:19 4.6 °C -3.7 °C 1025.7 hPa WNW 4.7 km/h 11.3 km/h 55% 0.0 mm 285 W/m2
10:24 4.6 °C -3.9 °C 1025.7 hPa West 1.4 km/h 6.4 km/h 54% 0.0 mm 302 W/m2
10:29 4.7 °C -3.6 °C 1025.7 hPa West 1.4 km/h 4.8 km/h 55% 0.0 mm 448 W/m2
10:34 4.7 °C -3.6 °C 1025.7 hPa Calm   3.2 km/h 55% 0.0 mm 424 W/m2
10:39 4.9 °C -3.4 °C 1025.7 hPa Calm   3.2 km/h 55% 0.0 mm 387 W/m2
10:44 5.1 °C -3.4 °C 1025.7 hPa WNW 6.4 km/h 6.4 km/h 54% 0.0 mm 422 W/m2
10:49 5 °C -4.3 °C 1025.7 hPa NNW 6.4 km/h 9.7 km/h 51% 0.0 mm 401 W/m2
Juneau County Weather
Compliments of Weather Underground - 2 mb